JP7FSO Minamiyanome JP current weather conditions

sailwx.info

Wind from 090

Air temperature 18.9° C
Dewpoint 17.0° C

Last reported at 2019-Jun-18 15:01 UTC.
Time now 2019-Jun-18 15:27 UTC

Location: N 37°48' E 140°27'.
View on Google Maps.

See reports from other nearby stations

  
Tides and Currents Weather Stations Pressure Air Temp Water Temp Dewpoint Dewpoint Depression Visibility Wind Speed Wind Dir Waves Ship Positions
date/time (UTC)wind fromknots sea level pressurealtimeterstation pressurevisibilityair tempwater tempwave heightnotes
2019-Jun-18 15:01 090 18.9
2019-Jun-18 14:46 090 18.9
2019-Jun-18 14:31 090 18.9
2019-Jun-18 14:16 090 18.9
2019-Jun-18 14:01 090 18.9
2019-Jun-18 13:46 090 18.9
2019-Jun-18 13:32 090 18.9
2019-Jun-18 13:16 090 18.9
2019-Jun-18 13:03 090 18.9
2019-Jun-18 12:46 090 18.9
2019-Jun-18 12:32 090 19.4
2019-Jun-18 12:16 090 19.4
2019-Jun-18 12:01 090 19.4
2019-Jun-18 11:46 090 19.4
2019-Jun-18 11:31 090 19.4
2019-Jun-18 11:16 090 20.0
2019-Jun-18 11:01 090 20.0
2019-Jun-18 10:46 090 20.0
2019-Jun-18 10:30 090 20.6
2019-Jun-18 10:16 090 20.6
2019-Jun-18 10:01 090 21.1
2019-Jun-18 09:45 090 21.7
2019-Jun-18 09:30 090 21.7
2019-Jun-18 09:15 090 22.2
2019-Jun-18 09:01 089 22.8
2019-Jun-18 08:46 089 0 23.3
2019-Jun-18 08:30 099 1 23.9
2019-Jun-18 08:15 087 1 24.4
2019-Jun-18 08:01 083 0 25.0
2019-Jun-18 07:46 080 0 25.6
2019-Jun-18 07:30 088 0 26.1
2019-Jun-18 07:16 103 0 27.8
2019-Jun-18 07:01 094 28.9
2019-Jun-18 06:46 094 27.8
2019-Jun-18 06:30 094 0 27.8
2019-Jun-18 06:15 091 27.2
2019-Jun-18 06:00 091 27.8
2019-Jun-18 05:46 091 27.2
2019-Jun-18 05:31 091 0 27.8
2019-Jun-18 05:16 277 0 26.7
2019-Jun-18 05:01 101 0 26.7
2019-Jun-18 04:45 262 26.7
2019-Jun-18 04:30 260 0 26.7
2019-Jun-18 04:15 276 0 26.7
2019-Jun-18 04:00 255 0 26.7
2019-Jun-18 03:45 272 0 26.7
2019-Jun-18 03:30 285 1 26.1
2019-Jun-18 03:15 269 1 26.1
2019-Jun-18 03:00 271 1 25.0
2019-Jun-18 02:45 090 1 24.4
2019-Jun-18 02:30 231 0 24.4
2019-Jun-18 02:15 222 1 24.4
2019-Jun-18 02:01 096 1 23.9
2019-Jun-18 01:46 092 1 23.9
2019-Jun-18 01:32 045 1 23.3
2019-Jun-18 01:16 066 1 23.3
2019-Jun-18 01:00 089 0 22.2
2019-Jun-18 00:46 254 21.1
2019-Jun-18 00:31 254 20.0
2019-Jun-18 00:15 254 19.4
2019-Jun-18 00:01 255 18.9
2019-Jun-17 23:45 255 18.3
2019-Jun-17 23:30 255 17.2
2019-Jun-17 23:15 255 16.7
2019-Jun-17 23:00 254 16.1
2019-Jun-17 22:45 254 15.6
2019-Jun-17 22:30 254 15.6
2019-Jun-17 22:17 254 15.0
2019-Jun-17 22:02 254 15.0
2019-Jun-17 21:47 254 14.4
2019-Jun-17 21:30 254 14.4
2019-Jun-17 21:01 254 13.9
2019-Jun-17 20:45 254 13.3
2019-Jun-17 20:16 254 13.3
2019-Jun-17 19:30 254 13.3
2019-Jun-17 19:02 254 13.3
2019-Jun-17 18:45 254 13.3
2019-Jun-16 23:01 271 6 17.2
2019-Jun-16 22:45 259 6 17.2
2019-Jun-16 22:16 278 7 17.2
2019-Jun-16 21:46 250 8 17.8
2019-Jun-16 20:31 269 6 16.1
2019-Jun-16 20:16 279 5 16.1
2019-Jun-16 20:01 262 6 16.7
2019-Jun-16 19:46 259 6 16.7
2019-Jun-16 19:31 264 7 16.7
2019-Jun-16 19:16 251 6 16.7
2019-Jun-16 19:00 282 7 16.7
2019-Jun-16 18:46 263 7 16.7
2019-Jun-16 18:30 258 5 17.2
2019-Jun-16 18:15 285 5 17.2
2019-Jun-16 18:00 266 5 17.2
2019-Jun-16 17:45 291 5 17.2
2019-Jun-16 17:32 286 6 17.2
2019-Jun-16 17:17 281 7 17.2
2019-Jun-16 17:01 255 6 16.7
2019-Jun-16 16:47 249 5 17.2
2019-Jun-16 16:31 243 5 17.2
2019-Jun-16 16:16 254 6 17.2
2019-Jun-16 16:00 252 6 17.2
2019-Jun-16 15:45 245 3 17.2
2019-Jun-16 15:30 256 4 17.2
2019-Jun-16 15:15 252 4 17.2
2019-Jun-16 15:00 259 4 17.2